Location: Brookview Estates
(36.0476°N, 86.6931°W)
Time: 17:48:51
(UTC+00:00)

Hubble Space Telescope - Pass Details

Date: 18 July 2020
Orbit: 536 x 540 km, 28.5° (Epoch: 08 August)

Event Time Altitude Azimuth Distance (km) Brightness Sun altitude
Rises 02:37:07 0° 255° (WSW) 2,668 4.8 -16.6°
Reaches altitude 10° 02:40:41 10° 223° (SW) 1,776 3.4 -17.1°
Maximum altitude 02:42:15 12° 201° (SSW) 1,658 3.0 -17.3°
Enters shadow 02:42:22 12° 199° (SSW) 1,659 3.0 -17.3°
